Regional Weather Roundup
Issued by NWS Grand Forks, ND

Home | Current Version | Previous Version | Graphics & Text | Print | Product List | Glossary On
Versions: 1 2 3 4 5 6 7 8 9 10 11 12 13 14 15 16 17 18 19 20 21 22 23 24 25 26 27 28 29 30 31 32 33 34 35 36 37 38 39 40 41 42 43 44 45 46 47 48 49 50
000
ASUS43 KFGF 301131
RWRFGF
PRAIRIE TO PINES  WEATHER ROUNDUP
NATIONAL WEATHER SERVICE EASTERN NORTH DAKOTA/GRAND FORKS ND
600 AM CDT MON MAR 30 2015

 **SATELLITE DATA USED TO AUGMENT SKY COVER AT AUTOMATED STATIONS**
 *****  WEATHER ACROSS EASTERN NORTH DAKOTA  *****

CITY           SKY/WX    TMP DP  RH WIND       PRES   REMARKS
GRAND FORKS    CLOUDY    36  31  82 CALM      29.88F
GRAND FRKS AFB CLOUDY    36  31  82 CALM      29.87F
GRAND FRKS NWS   N/A     34 N/A N/A W2          N/A
DEVILS LAKE    CLOUDY    36  30  80 SE8       29.81F
FARGO          CLOUDY    36  29  75 CALM      29.90F
WAHPETON ARPT  PTSUNNY   32  28  86 SE3       29.93S
$$

 ***** WEATHER ACROSS CENTRAL AND WESTERN NORTH DAKOTA  *****

CITY           SKY/WX    TMP DP  RH WIND       PRES   REMARKS
BISMARCK       PTCLDY    32  27  81 SW5       29.86F
MINOT          CLOUDY    46  31  55 SW5       29.76F
JAMESTOWN      CLOUDY    33  29  85 SE8       29.84F
MINOT AFB      CLOUDY    36  36  99 S3        29.75F
GARRISON         N/A     39  32  76 SW9       29.80F
WILLISTON      MOCLDY    41  31  67 SW5       29.83R
DICKINSON      CLOUDY    44  28  53 W16       29.86S
HETTINGER      MOCLDY    35  28  75 W6        29.93S
$$

 *****  OTHER AIRPORT OBSERVATIONS IN OUR AREA  *****

CITY           SKY/WX    TMP DP  RH WIND       PRES   REMARKS
WALHALLA         N/A     37  32  81 SW3       29.87R
GRAFTON AIRPOR NOT AVBL
VALLEY CITY AR CLOUDY    32  32 100 S6        29.87F
CANDO          CLOUDY    36  32  87 E8        29.82F
CAVALIER APRT  FAIR      36  30  80 SW3       29.87S
GWINNER        CLOUDY    36  32  87 CALM        N/A
ROLLA          CLOUDY    36  36 100 S7        29.82F
 ***** THE ABOVE OBSERVATIONS ARE NON NWS ARE NOT QUALITY
       CONTROLLED AND MAY MIS-REPORT RAIN FOR SNOW...
$$

  *****  WEATHER ACROSS NORTHERN MINNESOTA  *****

CITY           SKY/WX    TMP DP  RH WIND       PRES   REMARKS
FLAG ISLAND    CLEAR     30  25  80 CALM      29.86S
WARROAD        CLEAR     30  27  86 CALM      29.87S
ROSEAU         CLEAR     30  27  86 CALM      29.87S
HALLOCK        CLOUDY    36  30  80 CALM      29.87F
THF RVR FALLS  CLOUDY    32  28  86 CALM      29.90S
BAUDETTE       CLEAR     27  23  85 CALM      29.86R
WASKISH        CLEAR     27  27 100 CALM      29.89R
CROOKSTON      CLOUDY    32  30  93 SE5       29.90F
STEPHEN NDAWN    N/A     34  30  86 SW3         N/A
GREENBUSH NDAW   N/A     32  30  93 S3          N/A
$$
  *****  WEATHER ACROSS CENTRAL AND WEST MINNESOTA  *****

CITY           SKY/WX    TMP DP  RH WIND       PRES   REMARKS
FOSSTON        CLOUDY    28  27  93 CALM      29.91S
BEMIDJI        MOCLDY    28  25  87 CALM      29.89S
PARK RAPIDS    MOCLDY    35  28  75 CALM      29.90R
ELBOW LAKE     FAIR      32  28  83 SE5       29.92F
WADENA         CLOUDY    34  27  75 CALM      29.91S
DETROIT LAKES  MOCLDY    34  30  86 CALM      29.92S
MOORHEAD       CLOUDY    36  34  93 SE6       29.91F
FERGUS FALLS   CLOUDY    34  27  75 SE3       29.94F
MORRIS MN      MOCLDY    34  28  80 CALM      29.93F
STAPLES        CLOUDY    34  27  75 CALM      29.92F
$$
  *****  WEATHER ELSEWHERE ACROSS MINNESOTA  *****

CITY           SKY/WX    TMP DP  RH WIND       PRES   REMARKS
DULUTH         CLEAR     35  25  66 W10       29.87R
INTRNTL FALLS  CLEAR     25  20  81 CALM      29.87R
ELY            CLEAR     27  23  86 CALM      29.86R
CLOQUET        CLEAR     32  25  74 W9        29.89R WCI  24
WHEATON        CLOUDY    36  27  69 S5        29.94F
BRAINERD       PTCLDY    29  24  82 S3        29.93R
HIBBING        CLEAR     24  21  88 CALM      29.88R
ALEXANDRIA     CLOUDY    33  27  78 SW5       29.94R
SAINT CLOUD    PTCLDY    29  25  85 CALM      29.94R
MINNEAPOLIS    PTCLDY    37  28  70 SW3       29.96R
$$

  *****  WEATHER ACROSS SOUTH DAKOTA  *****

CITY           SKY/WX    TMP DP  RH WIND       PRES   REMARKS
SIOUX FALLS    MOCLDY    31  21  66 SW3       30.01S
BROOKINGS      NOT AVBL
WATERTOWN      PTCLDY    28  23  81 CALM      29.94F
HURON          CLEAR     35  24  64 S5        29.94F
SISSETON         N/A     48  30  49 CALM      29.90F
ABERDEEN       MOCLDY    29  23  78 S7        29.91F WCI  22
MITCHELL       CLEAR     41  23  48 SW6       29.98F
PIERRE         MOCLDY    41  29  62 W3        29.92F
MOBRIDGE       CLOUDY    33  28  81 CALM      29.87F
RAPID CITY     CLEAR     42  23  46 NW14      29.98S
$$

  *****  SOME WEATHER IN NEARBY STATES *****

CITY           SKY/WX    TMP DP  RH WIND       PRES   REMARKS
GLASGOW MT     MOCLDY    49  32  52 W18       29.91R
GREAT FALLS MT MOCLDY    46  30  53 SW10      30.04S
CHEYENNE WY    CLEAR     36  18  48 W9        30.14R
SCOTTSBLUFF NE CLEAR     31  23  72 W6        30.05R
OMAHA NE       MOCLDY    39  27  62 SE9       30.10F
DES MOINES IA  PTCLDY    37  24  59 SW3       30.10F
DAVENPORT IA   CLEAR     30  25  81 W7        30.07R WCI  23
CHICAGO IL     CLEAR     35  28  75 W9        29.99R
EAU CLAIRE WI  MOCLDY    30  24  78 SW6       29.94R WCI  24
LA CROSSE WI   PTCLDY    36  27  69 SE7       29.98S
$$

  *****  SOME NATIONAL WEATHER *****

CITY           SKY/WX    TMP DP  RH WIND       PRES   REMARKS
LA GUARDIA NY  LGT SNOW  34  28  80 S7        29.94F
RALEIGH NC     MOCLDY    43  26  51 SW15      30.09S
ATLANTA GA     LGT RAIN  52  48  87 NW8       30.16R FOG
NEW ORLEANS LA PTCLDY    61  58  90 CALM      30.19R
OKLAHOMA CITY  PTCLDY    48  38  68 CALM      30.17R
ALBUQUERQUE NM PTCLDY    54  25  32 N3        30.23S
SALT LAKE CITY CLEAR     43  26  51 S8        30.19S
LOS ANGELES CA PTCLDY    58  55  90 CALM      30.00S
BOISE ID       CLEAR     45  30  55 SE7       30.15S
SEATTLE WA     CLOUDY    53  48  83 SW3       30.12F
$$

*** WEATHER ACROSS MANITOBA...SASKATCHEWAN AND ONTARIO ***
                ***ONTARIO***

CITY           SKY/WX    TMP DP  RH WIND       PRES   REMARKS
GERALDTON      FLURRIES  19  16  86 NW10G20   29.73  WCI   8
THUNDER BAY    PTCLDY    30  27  86 W3        29.81R
SIOUX LOOKOUT  PTCLDY    23  21  93 N3        29.83R
TORONTO        CLOUDY    37  28  70 W20G28    29.62R
BIG TROUT LK   CLEAR     -8 -11  84 N5        29.89R WCI -19
PICKLE LAKE    FLURRIES  14   9  79 N5        29.82  WCI   6
DRYDEN         CLEAR     27  25  93 N3        29.83R
KENORA         CLEAR     32  23  69 NW3       29.85R
$$
                *** MANITOBA***

CITY           SKY/WX    TMP DP  RH WIND       PRES   REMARKS
BRANDON        CLOUDY    36  30  80 CALM      29.84S
DAUPHIN        CLOUDY    37  30  75 SW7       29.80F
ISLAND LAKE    CLEAR      3   1  92 SE3       29.89S
PILOT MOUND      N/A     34  34 100 SE5         N/A
THE PAS        FRZ RAIN  32  27  80 SE9       29.72F WCI  24
THOMPSON       CLOUDY     9   7  92 VRB2      29.84S
WINNIPEG       MOCLDY    30  25  80 S5        29.85S
LYNN LAKE      CLOUDY    16  16 100 NE5       29.72R WCI   9
CHURCHILL      PTCLDY    -6  -9  84 W6        29.97F WCI -18
GILLAM         PTCLDY    -9 -15  77 CALM      29.94S
$$
                ***SASKATCHEWAN***

CITY           SKY/WX    TMP DP  RH WIND       PRES   REMARKS
ESTEVAN        MOCLDY    41  36  81 W9        29.76R
KINDERSLEY     PTCLDY    37  34  87 NW8       29.90R
LLOYDMINSTER   CLEAR     37  30  75 W16G22    29.85R
PRINCE ALBERT  PTCLDY    36  32  87 W7        29.73R
REGINA         PTCLDY    34  32  93 W8        29.80R
YORKTON        CLOUDY    36  34  93 SE7       29.78F
N. BATTLEFORD  MOCLDY    37  34  87 W13       29.85R
LA RONGE       LGT RAIN  36  32  87 W9        29.68R
SASKATOON      PTCLDY    36  32  87 NW13      29.81R
SWIFT CURRENT  CLEAR     37  32  81 W14       29.89R
$$
NOTE: THESE ARE AUTOMATED STATIONS WITH LIMITED QUALITY CONTROL
      "FAIR" INDICATES FEW OR NO CLOUDS BELOW 12,000 FEET WITH NO
      SIGNIFICANT WEATHER AND/OR OBSTRUCTIONS TO VISIBILITY.
      SKY/WX - SKY CONDITION AND SIGNIFICANT WEATHER.
      TMP - AIR TEMPERATURE.    DP   - DEWPOINT TEMPERATURE.
      RH  - RELATIVE HUMIDITY.  PRES - PRESSURE.
      HX  - HEAT INDEX.         WCI  - WIND CHILL INDEX.
$



USA.gov is the U.S. government's official web portal to all federal, state and local government web resources and services.